Weather History for KMRB - December, 2012

Change the Weather History Date:

Wednesday, December 26, 2012

  Actual Average Record
Temperature  
Mean Temperature 32 °F 32 °F  
Max Temperature 35 °F 40 °F 66 °F (1971)
Min Temperature 29 °F 23 °F -2 °F (1983)
Degree Days  
Heating Degree Days 33 33  
Month to date heating degree days 619 788  
Since 1 July heating degree days 1728 1858  
Cooling Degree Days 0 0  
Month to date cooling degree days 0 0  
Year to date cooling degree days 1145 895  
Moisture  
Dew Point 28 °F    
Average Humidity 82    
Maximum Humidity 92    
Minimum Humidity 72    
Precipitation  
Precipitation 1.24 in 0.08 in 1.24 in (2012)
Month to date precipitation 2.86 2.37  
Year to date precipitation 32.26 38.36  
Sea Level Pressure  
Sea Level Pressure 29.88 in    
Wind  
Wind Speed 8 mph (NNE)    
Max Wind Speed 18 mph    
Max Gust Speed 23 mph    
Visibility 3 miles    
Events Fog , Rain , Snow    
T = Trace of Precipitation, MM = Missing Value Source: NWS Daily Summary

Daily Weather History Graph

Daily Weather History Graph

Search for Another Location

Airport or City:

Trip Planner

Search our weather history database for the weather conditions in past years. The results will help you decide how hot, cold, wet, or windy it might be!

Date:

Astronomy

Dec. 26, 2012 Rise Set
Actual Time 7:30 AM EST 4:54 PM EST
Civil Twilight 7:00 AM EST 5:25 PM EST
Nautical Twilight 6:26 AM EST 5:58 PM EST
Astronomical Twilight 5:54 AM EST 6:31 PM EST
Moon 3:46 PM EST (12/26) 5:52 AM EST (12/26)
Length of Visible Light 10h 24m
Length of Day
9h 24m
Waxing Gibbous, 97% of the Moon is Illuminated
Dec 26
Waxing Gibbous
Dec 28
Full
Jan 4
Last Quarter
Jan 11
New
Jan 18
First Quarter

Hourly Weather History & Observations

Time (EST) Temp. Windchill Dew Point Humidity Pressure Visibility Wind Dir Wind Speed Gust Speed Precip Events Conditions
12:24 AM 35.6 °F 32.8 °F 30.2 °F 81% 30.23 in 7.0 mi North 3.5 mph - N/A   Overcast
12:53 AM 35.1 °F 31.0 °F 30.0 °F 82% 30.25 in 7.0 mi NE 4.6 mph - N/A   Overcast
1:06 AM 33.8 °F 30.8 °F 30.2 °F 87% 30.23 in 7.0 mi NE 3.5 mph - N/A   Overcast
1:53 AM 34.0 °F 28.8 °F 28.9 °F 82% 30.22 in 8.0 mi NE 5.8 mph - N/A   Overcast
2:53 AM 34.0 °F - 28.9 °F 82% 30.24 in 9.0 mi Calm Calm - N/A   Overcast
3:53 AM 33.1 °F 26.9 °F 28.0 °F 82% 30.17 in 10.0 mi NE 6.9 mph - N/A   Overcast
4:24 AM 33.8 °F 29.6 °F 24.8 °F 70% 30.17 in 10.0 mi ENE 4.6 mph - N/A   Overcast
4:53 AM 32.0 °F 27.5 °F 25.0 °F 75% 30.19 in 10.0 mi ENE 4.6 mph - N/A   Overcast
5:53 AM 32.0 °F 28.7 °F 24.1 °F 73% 30.19 in 10.0 mi East 3.5 mph - N/A   Overcast
6:40 AM 30.2 °F 25.4 °F 24.8 °F 80% 30.15 in 1.2 mi ENE 4.6 mph - 0.00 in Snow Light Snow
6:53 AM 30.0 °F 25.2 °F 25.0 °F 82% 30.17 in 1.8 mi ENE 4.6 mph - 0.01 in Snow Light Snow
7:01 AM 30.2 °F 25.4 °F 26.6 °F 86% 30.14 in 2.0 mi ENE 4.6 mph - 0.00 in Snow Light Snow
7:15 AM 30.2 °F 23.4 °F 26.6 °F 86% 30.13 in 1.5 mi NE 6.9 mph - 0.00 in Snow Light Snow
7:51 AM 28.4 °F 19.7 °F 26.6 °F 93% 30.08 in 1.5 mi NNE 9.2 mph - 0.02 in Snow Light Snow
7:53 AM 28.9 °F 21.1 °F 27.0 °F 92% 30.10 in 1.5 mi NNE 8.1 mph - 0.03 in Snow Light Snow
7:58 AM 28.4 °F 19.1 °F 26.6 °F 93% 30.07 in 2.0 mi NNE 10.4 mph - 0.00 in Snow Light Snow
8:07 AM 28.4 °F 18.5 °F 26.6 °F 93% 30.06 in 3.0 mi NNE 11.5 mph - 0.00 in Snow Light Snow
8:21 AM 28.4 °F 20.4 °F 26.6 °F 93% 30.07 in 3.0 mi NNE 8.1 mph - 0.01 in Rain Light Freezing Rain
8:27 AM 28.4 °F 20.4 °F 26.6 °F 93% 30.07 in 2.5 mi NE 8.1 mph - 0.02 in Snow Light Snow
8:37 AM 28.4 °F 23.3 °F 26.6 °F 93% 30.07 in 1.0 mi ENE 4.6 mph - 0.03 in Snow Light Snow
8:42 AM 28.4 °F 23.3 °F 26.6 °F 93% 30.07 in 0.5 mi ENE 4.6 mph - 0.05 in Fog , Snow Snow
8:46 AM 28.4 °F 24.6 °F 26.6 °F 93% 30.08 in 0.2 mi ENE 3.5 mph - 0.05 in Fog , Snow Heavy Snow
8:53 AM 28.9 °F - 27.0 °F 92% 30.10 in 0.2 mi Calm Calm - 0.07 in Fog , Snow Snow
9:53 AM 28.9 °F 21.9 °F 26.1 °F 89% 30.07 in 0.2 mi NNE 6.9 mph - 0.09 in Fog , Snow Heavy Snow
10:53 AM 28.9 °F 21.1 °F 26.1 °F 89% 30.02 in 0.2 mi NNE 8.1 mph - 0.09 in Fog , Snow Heavy Snow
11:48 AM 28.4 °F 20.4 °F 26.6 °F 93% 29.94 in 0.5 mi North 8.1 mph - 0.11 in Fog , Snow Snow
11:53 AM 28.9 °F 21.1 °F 26.1 °F 89% 29.95 in 0.5 mi NNE 8.1 mph - 0.12 in Fog , Snow Snow
12:08 PM 28.4 °F 21.2 °F 26.6 °F 93% 29.93 in 0.5 mi North 6.9 mph - 0.02 in Fog , Snow Snow
12:53 PM 28.9 °F 19.8 °F 26.1 °F 89% 29.86 in 0.2 mi NNE 10.4 mph - 0.10 in Fog , Snow Heavy Snow
1:06 PM 28.4 °F 19.7 °F 26.6 °F 93% 29.83 in 0.5 mi NNE 9.2 mph - 0.04 in Fog , Snow Snow
1:15 PM 28.4 °F 21.2 °F 26.6 °F 93% 29.81 in 1.2 mi NNE 6.9 mph - 0.06 in Snow Light Snow
1:44 PM 28.4 °F 20.4 °F 26.6 °F 93% 29.79 in 1.0 mi NNE 8.1 mph - 0.10 in Snow Light Snow
1:53 PM 28.9 °F 21.1 °F 27.0 °F 92% 29.79 in 1.0 mi North 8.1 mph - 0.11 in Snow Light Snow
2:24 PM 30.2 °F 20.2 °F 28.4 °F 93% 29.72 in 2.0 mi NNE 12.7 mph - 0.10 in Rain Light Freezing Rain
2:47 PM 30.2 °F 21.3 °F 28.4 °F 93% 29.71 in 3.0 mi NNW 10.4 mph - 0.14 in Rain Light Freezing Rain
2:53 PM 30.9 °F 22.8 °F 28.0 °F 89% 29.74 in 2.5 mi NNW 9.2 mph - 0.15 in Rain Light Freezing Rain
3:04 PM 30.2 °F 20.2 °F 28.4 °F 93% 29.72 in 1.2 mi NNW 12.7 mph - 0.07 in Rain Light Freezing Rain
3:37 PM 30.2 °F 18.9 °F 28.4 °F 93% 29.67 in 3.0 mi NNE 16.1 mph - 0.16 in Rain Light Freezing Rain
3:53 PM 32.0 °F 24.2 °F 28.9 °F 88% 29.71 in 5.0 mi NNW 9.2 mph - 0.16 in Rain Light Freezing Rain
4:00 PM 32.0 °F 23.6 °F 28.4 °F 87% 29.67 in 2.5 mi North 10.4 mph - 0.01 in Rain Light Freezing Rain
4:09 PM 30.2 °F 20.8 °F 28.4 °F 93% 29.66 in 1.5 mi North 11.5 mph - 0.03 in Rain Light Freezing Rain
4:17 PM 30.2 °F 20.8 °F 28.4 °F 93% 29.66 in 1.2 mi North 11.5 mph - 0.04 in Snow Light Snow
4:53 PM 30.9 °F 21.2 °F 28.9 °F 92% 29.64 in 2.0 mi North 12.7 mph 20.7 mph 0.09 in Snow Light Snow
5:53 PM 32.0 °F 21.2 °F 28.9 °F 88% 29.59 in 4.0 mi North 16.1 mph 23.0 mph 0.01 in Snow Light Snow
6:04 PM 32.0 °F 22.1 °F 28.4 °F 87% 29.57 in 5.0 mi North 13.8 mph - 0.00 in Snow Light Snow
6:35 PM 32.0 °F 23.0 °F 28.4 °F 87% 29.56 in 7.0 mi North 11.5 mph 19.6 mph 0.00 in   Overcast
6:53 PM 33.1 °F 23.4 °F 30.0 °F 89% 29.56 in 4.0 mi North 13.8 mph 23.0 mph 0.01 in Rain Rain
7:53 PM 33.1 °F 26.1 °F 30.9 °F 92% 29.53 in 4.0 mi North 8.1 mph - 0.04 in Rain Light Rain
8:53 PM 33.1 °F 23.4 °F 30.9 °F 92% 29.53 in 4.0 mi North 13.8 mph - 0.10 in Snow Light Snow
9:53 PM 34.0 °F 26.6 °F 30.9 °F 89% 29.51 in 7.0 mi NNW 9.2 mph - 0.01 in   Overcast
10:36 PM 33.8 °F 27.7 °F 32.0 °F 93% 29.51 in 4.0 mi NW 6.9 mph - 0.01 in   Overcast
10:45 PM 33.8 °F 26.4 °F 30.2 °F 87% 29.51 in 4.0 mi NW 9.2 mph - 0.01 in Rain Light Rain
10:53 PM 34.0 °F 26.0 °F 30.9 °F 89% 29.52 in 5.0 mi NW 10.4 mph - 0.02 in Rain Light Rain
11:12 PM 33.8 °F 27.7 °F 32.0 °F 93% 29.51 in 4.0 mi NW 6.9 mph - 0.01 in Snow Light Snow
11:41 PM 33.8 °F 26.4 °F 30.2 °F 87% 29.51 in 4.0 mi NW 9.2 mph - 0.02 in Snow Light Snow
11:53 PM 33.1 °F 26.1 °F 30.9 °F 92% 29.53 in 3.0 mi NW 8.1 mph - 0.03 in Snow Light Snow